Back to catalog

STARLINK-32176

AliveCommunicationsVLEO
NORAD 60340·PAYLOAD·🇺🇸 United States

Launched Aug 2, 2024 from Cape Canaveral Space Force Station

Loading…

Next Passes (next 24 hours)

TLE

FreshSource: CelesTrak SupGP

Epoch: Sep 14, 2026, 22:08 UTC

1 60340C 24136M   26257.92270833  .00049234  00000+0  14561-2 0  2572
2 60340  53.1570 275.8465 0001311 103.4487  89.2367 15.34334521    13

Track STARLINK-32176 in real time with AllMySat

Download on the App Store